Location: Borowce
(50.8255°N, 19.6209°E)
Time: 08:45:39
(UTC+00:00)

SeaSat 1 - Pass Details

Date: 19 May 2025
Orbit: 738 x 740 km, 108.0° (Epoch: 17 June)

Event Time Altitude Azimuth Distance (km) Brightness Sun altitude
Exits shadow 21:36:42 21° 211° (SSW) 1,612 3.8 -17.9°
Maximum altitude 21:38:48 29° 251° (WSW) 1,338 3.7 -18.0°
Drops below altitude 10° 21:43:04 10° 311° (NW) 2,259 5.7 -18.2°
Sets 21:45:37 0° 323° (NW) 3,187 6.9 -18.3°
